Time,TemperatureF,DewpointF,PressureIn,WindDirection,WindDirectionDegrees,WindSpeedMPH,WindSpeedGustMPH,Humidity,HourlyPrecipIn,Conditions,Clouds,dailyrainin,SoftwareType,DateUTC
2013-03-19 00:10:00,28.0,26.0,29.64,SE,128,9.0,-999.0,91,-99.99,,,0.00,weatherlink.com 1.10,2013-03-19 04:10:00,
2013-03-19 00:25:00,28.1,26.0,29.64,ESE,111,5.0,-999.0,90,-99.99,,,0.00,weatherlink.com 1.10,2013-03-19 04:25:00,
2013-03-19 00:41:00,28.0,26.0,29.62,ESE,110,9.0,-999.0,90,-99.99,,,0.00,weatherlink.com 1.10,2013-03-19 04:41:00,
2013-03-19 00:56:00,27.9,26.0,29.62,ESE,115,8.0,-999.0,91,-99.99,,,0.00,weatherlink.com 1.10,2013-03-19 04:56:00,
2013-03-19 01:11:00,27.8,26.0,29.61,ESE,121,4.0,-999.0,91,-99.99,,,0.00,weatherlink.com 1.10,2013-03-19 05:11:00,
2013-03-19 01:26:00,27.9,26.0,29.60,ESE,121,9.0,-999.0,92,-99.99,,,0.00,weatherlink.com 1.10,2013-03-19 05:26:00,
2013-03-19 02:11:00,28.0,26.0,29.57,ESE,110,6.0,-999.0,91,-99.99,,,0.00,weatherlink.com 1.10,2013-03-19 06:11:00,
2013-03-19 02:41:00,28.1,26.0,29.56,ESE,102,3.0,-999.0,91,-99.99,,,0.00,weatherlink.com 1.10,2013-03-19 06:41:00,
2013-03-19 03:11:00,28.2,26.0,29.55,ESE,109,4.0,-999.0,91,-99.99,,,0.00,weatherlink.com 1.10,2013-03-19 07:11:00,
2013-03-19 03:26:00,28.3,26.0,29.54,East,95,5.0,-999.0,91,-99.99,,,0.00,weatherlink.com 1.10,2013-03-19 07:26:00,
2013-03-19 03:41:00,28.3,26.0,29.53,ESE,109,4.0,-999.0,90,-99.99,,,0.00,weatherlink.com 1.10,2013-03-19 07:41:00,
2013-03-19 03:56:00,28.4,26.0,29.53,SE,138,3.0,-999.0,90,-99.99,,,0.00,weatherlink.com 1.10,2013-03-19 07:56:00,
2013-03-19 04:11:00,28.3,26.0,29.52,ESE,104,2.0,-999.0,91,-99.99,,,0.00,weatherlink.com 1.10,2013-03-19 08:11:00,
2013-03-19 04:26:00,28.2,26.0,29.52,SE,129,2.0,-999.0,91,-99.99,,,0.00,weatherlink.com 1.10,2013-03-19 08:26:00,
2013-03-19 04:41:00,28.1,26.0,29.52,ESE,115,4.0,-999.0,92,-99.99,,,0.00,weatherlink.com 1.10,2013-03-19 08:41:00,
2013-03-19 04:56:00,28.1,26.0,29.52,SSE,159,2.0,-999.0,92,-99.99,,,0.00,weatherlink.com 1.10,2013-03-19 08:56:00,
2013-03-19 05:26:00,28.2,26.0,29.51,ESE,114,5.0,-999.0,92,-99.99,,,0.00,weatherlink.com 1.10,2013-03-19 09:26:00,
2013-03-19 05:41:00,28.3,26.0,29.51,SE,144,3.0,-999.0,92,-99.99,,,0.00,weatherlink.com 1.10,2013-03-19 09:41:00,
2013-03-19 05:56:00,28.4,26.0,29.51,SE,138,6.0,-999.0,92,-99.99,,,0.00,weatherlink.com 1.10,2013-03-19 09:56:00,
2013-03-19 06:11:00,28.5,27.0,29.51,ESE,123,5.0,-999.0,93,-99.99,,,0.00,weatherlink.com 1.10,2013-03-19 10:11:00,
2013-03-19 06:26:00,28.5,27.0,29.51,SE,142,5.0,-999.0,93,-99.99,,,0.00,weatherlink.com 1.10,2013-03-19 10:26:00,
2013-03-19 06:41:00,28.7,27.0,29.51,South,169,5.0,-999.0,93,-99.99,,,0.00,weatherlink.com 1.10,2013-03-19 10:41:00,
2013-03-19 06:56:00,28.8,27.0,29.52,South,189,8.0,-999.0,94,-99.99,,,0.00,weatherlink.com 1.10,2013-03-19 10:56:00,
2013-03-19 07:11:00,28.8,27.0,29.52,SSW,198,5.0,-999.0,93,-99.99,,,0.00,weatherlink.com 1.10,2013-03-19 11:11:00,
2013-03-19 07:26:00,28.9,27.0,29.52,SSW,203,3.0,-999.0,93,-99.99,,,0.00,weatherlink.com 1.10,2013-03-19 11:26:00,
2013-03-19 07:41:00,29.3,28.0,29.53,SSW,211,5.0,-999.0,93,-99.99,,,0.00,weatherlink.com 1.10,2013-03-19 11:41:00,
2013-03-19 07:56:00,29.4,27.0,29.53,SSW,209,4.0,-999.0,92,-99.99,,,0.00,weatherlink.com 1.10,2013-03-19 11:56:00,
2013-03-19 08:11:00,29.3,27.0,29.53,SSW,207,5.0,-999.0,92,-99.99,,,0.00,weatherlink.com 1.10,2013-03-19 12:11:00,
2013-03-19 08:26:00,29.2,27.0,29.53,SSW,204,5.0,-999.0,92,-99.99,,,0.00,weatherlink.com 1.10,2013-03-19 12:26:00,
2013-03-19 08:41:00,29.0,27.0,29.54,SW,229,7.0,-999.0,92,-99.99,,,0.00,weatherlink.com 1.10,2013-03-19 12:41:00,
2013-03-19 08:56:00,28.5,27.0,29.54,SSW,209,12.0,-999.0,92,-99.99,,,0.00,weatherlink.com 1.10,2013-03-19 12:56:00,
2013-03-19 09:11:00,28.0,26.0,29.54,SSW,209,11.0,-999.0,92,-99.99,,,0.00,weatherlink.com 1.10,2013-03-19 13:11:00,
2013-03-19 09:26:00,27.7,26.0,29.54,SSW,192,11.0,-999.0,91,-99.99,,,0.00,weatherlink.com 1.10,2013-03-19 13:26:00,
2013-03-19 09:41:00,27.6,25.0,29.54,SSW,210,18.0,-999.0,90,-99.99,,,0.00,weatherlink.com 1.10,2013-03-19 13:41:00,
2013-03-19 09:56:00,27.7,25.0,29.54,SW,219,13.0,-999.0,90,-99.99,,,0.00,weatherlink.com 1.10,2013-03-19 13:56:00,
2013-03-19 10:11:00,28.0,26.0,29.55,SSW,196,10.0,-999.0,90,-99.99,,,0.00,weatherlink.com 1.10,2013-03-19 14:11:00,
2013-03-19 10:27:00,28.1,26.0,29.55,SSW,202,11.0,-999.0,90,-99.99,,,0.00,weatherlink.com 1.10,2013-03-19 14:27:00,
2013-03-19 10:42:00,28.1,26.0,29.55,SSW,209,11.0,-999.0,90,-99.99,,,0.00,weatherlink.com 1.10,2013-03-19 14:42:00,
2013-03-19 10:57:00,28.3,26.0,29.55,SSW,205,14.0,-999.0,90,-99.99,,,0.00,weatherlink.com 1.10,2013-03-19 14:57:00,
2013-03-19 11:12:00,28.5,26.0,29.56,SSW,211,10.0,-999.0,90,-99.99,,,0.00,weatherlink.com 1.10,2013-03-19 15:12:00,
2013-03-19 11:27:00,28.7,26.0,29.56,SW,228,13.0,-999.0,90,-99.99,,,0.00,weatherlink.com 1.10,2013-03-19 15:27:00,
2013-03-19 11:42:00,28.7,26.0,29.57,SSW,212,11.0,-999.0,89,-99.99,,,0.00,weatherlink.com 1.10,2013-03-19 15:42:00,
2013-03-19 11:57:00,29.0,26.0,29.57,SSW,202,11.0,-999.0,89,-99.99,,,0.00,weatherlink.com 1.10,2013-03-19 15:57:00,
2013-03-19 12:12:00,29.1,26.0,29.57,SW,230,13.0,-999.0,87,-99.99,,,0.00,weatherlink.com 1.10,2013-03-19 16:12:00,
2013-03-19 12:27:00,28.8,26.0,29.58,SW,231,12.0,-999.0,88,-99.99,,,0.00,weatherlink.com 1.10,2013-03-19 16:27:00,
2013-03-19 12:42:00,29.0,26.0,29.58,WSW,244,11.0,-999.0,89,-99.99,,,0.00,weatherlink.com 1.10,2013-03-19 16:42:00,
2013-03-19 12:57:00,28.9,26.0,29.59,WSW,241,12.0,-999.0,89,-99.99,,,0.00,weatherlink.com 1.10,2013-03-19 16:57:00,
2013-03-19 13:12:00,29.2,26.0,29.59,WSW,245,11.0,-999.0,88,-99.99,,,0.00,weatherlink.com 1.10,2013-03-19 17:12:00,
2013-03-19 13:27:00,29.0,26.0,29.59,SW,236,10.0,-999.0,87,-99.99,,,0.00,weatherlink.com 1.10,2013-03-19 17:27:00,
2013-03-19 13:42:00,29.3,26.0,29.60,SW,227,6.0,-999.0,87,-99.99,,,0.00,weatherlink.com 1.10,2013-03-19 17:42:00,
2013-03-19 14:12:00,29.1,25.0,29.61,WSW,245,11.0,-999.0,85,-99.99,,,0.00,weatherlink.com 1.10,2013-03-19 18:12:00,
2013-03-19 14:27:00,29.0,26.0,29.61,WSW,241,5.0,-999.0,88,-99.99,,,0.00,weatherlink.com 1.10,2013-03-19 18:27:00,
2013-03-19 14:42:00,29.1,26.0,29.61,SW,232,7.0,-999.0,89,-99.99,,,0.00,weatherlink.com 1.10,2013-03-19 18:42:00,
2013-03-19 14:57:00,29.7,27.0,29.61,SW,236,6.0,-999.0,89,-99.99,,,0.00,weatherlink.com 1.10,2013-03-19 18:57:00,
2013-03-19 15:12:00,29.8,27.0,29.62,WSW,242,11.0,-999.0,88,-99.99,,,0.00,weatherlink.com 1.10,2013-03-19 19:12:00,
2013-03-19 15:27:00,30.2,27.0,29.62,WSW,240,7.0,-999.0,88,-99.99,,,0.00,weatherlink.com 1.10,2013-03-19 19:27:00,
2013-03-19 15:42:00,30.3,27.0,29.63,SW,233,10.0,-999.0,88,-99.99,,,0.00,weatherlink.com 1.10,2013-03-19 19:42:00,
2013-03-19 15:57:00,30.4,28.0,29.63,SW,224,7.0,-999.0,89,-99.99,,,0.01,weatherlink.com 1.10,2013-03-19 19:57:00,
2013-03-19 16:12:00,30.4,28.0,29.64,SW,219,6.0,-999.0,91,-99.99,,,0.01,weatherlink.com 1.10,2013-03-19 20:12:00,
2013-03-19 16:27:00,30.5,28.0,29.64,SSW,208,9.0,-999.0,91,-99.99,,,0.01,weatherlink.com 1.10,2013-03-19 20:27:00,
2013-03-19 16:42:00,30.5,29.0,29.64,SSW,203,4.0,-999.0,92,-99.99,,,0.01,weatherlink.com 1.10,2013-03-19 20:42:00,
2013-03-19 16:57:00,30.7,29.0,29.65,SW,215,4.0,-999.0,92,-99.99,,,0.01,weatherlink.com 1.10,2013-03-19 20:57:00,
2013-03-19 17:12:00,31.1,29.0,29.65,WSW,240,7.0,-999.0,92,-99.99,,,0.02,weatherlink.com 1.10,2013-03-19 21:12:00,
2013-03-19 17:27:00,31.0,29.0,29.66,WSW,243,13.0,-999.0,93,-99.99,,,0.02,weatherlink.com 1.10,2013-03-19 21:27:00,
2013-03-19 17:42:00,30.4,28.0,29.67,West,262,7.0,-999.0,92,-99.99,,,0.02,weatherlink.com 1.10,2013-03-19 21:42:00,
2013-03-19 17:57:00,30.1,28.0,29.68,WSW,238,15.0,-999.0,93,-99.99,,,0.02,weatherlink.com 1.10,2013-03-19 21:57:00,
2013-03-19 18:12:00,30.4,29.0,29.68,WSW,240,8.0,-999.0,94,-99.99,,,0.02,weatherlink.com 1.10,2013-03-19 22:12:00,
2013-03-19 18:27:00,31.1,30.0,29.69,West,267,3.0,-999.0,94,-99.99,,,0.02,weatherlink.com 1.10,2013-03-19 22:27:00,
2013-03-19 18:58:00,31.0,29.0,29.71,WNW,299,5.0,-999.0,93,-99.99,,,0.02,weatherlink.com 1.10,2013-03-19 22:58:00,
2013-03-19 19:13:00,30.5,29.0,29.72,WNW,285,6.0,-999.0,93,-99.99,,,0.02,weatherlink.com 1.10,2013-03-19 23:13:00,
2013-03-19 19:28:00,29.7,28.0,29.74,NW,310,5.0,-999.0,94,-99.99,,,0.02,weatherlink.com 1.10,2013-03-19 23:28:00,
2013-03-19 19:43:00,29.7,28.0,29.75,NW,309,11.0,-999.0,94,-99.99,,,0.02,weatherlink.com 1.10,2013-03-19 23:43:00,
2013-03-19 19:58:00,29.4,28.0,29.76,WNW,298,9.0,-999.0,94,-99.99,,,0.02,weatherlink.com 1.10,2013-03-19 23:58:00,
2013-03-19 20:13:00,28.8,27.0,29.77,NW,304,11.0,-999.0,94,-99.99,,,0.02,weatherlink.com 1.10,2013-03-20 00:13:00,
2013-03-19 20:28:00,28.4,27.0,29.78,WNW,300,13.0,-999.0,94,-99.99,,,0.02,weatherlink.com 1.10,2013-03-20 00:28:00,
2013-03-19 20:43:00,28.2,27.0,29.79,West,279,8.0,-999.0,93,-99.99,,,0.02,weatherlink.com 1.10,2013-03-20 00:43:00,
2013-03-19 20:58:00,27.9,26.0,29.79,West,261,12.0,-999.0,93,-99.99,,,0.02,weatherlink.com 1.10,2013-03-20 00:58:00,
2013-03-19 21:13:00,27.5,26.0,29.80,WNW,290,5.0,-999.0,93,-99.99,,,0.02,weatherlink.com 1.10,2013-03-20 01:13:00,
2013-03-19 21:28:00,27.2,26.0,29.81,West,277,9.0,-999.0,93,-99.99,,,0.02,weatherlink.com 1.10,2013-03-20 01:28:00,
2013-03-19 21:43:00,26.9,25.0,29.81,NW,314,13.0,-999.0,93,-99.99,,,0.02,weatherlink.com 1.10,2013-03-20 01:43:00,
2013-03-19 21:58:00,26.6,25.0,29.81,West,260,5.0,-999.0,92,-99.99,,,0.02,weatherlink.com 1.10,2013-03-20 01:58:00,
2013-03-19 22:13:00,26.0,24.0,29.81,NW,322,8.0,-999.0,92,-99.99,,,0.02,weatherlink.com 1.10,2013-03-20 02:13:00,
2013-03-19 22:28:00,25.6,24.0,29.82,West,279,4.0,-999.0,92,-99.99,,,0.02,weatherlink.com 1.10,2013-03-20 02:28:00,
2013-03-19 22:43:00,25.4,23.0,29.81,West,269,5.0,-999.0,92,-99.99,,,0.02,weatherlink.com 1.10,2013-03-20 02:43:00,
2013-03-19 22:58:00,25.4,23.0,29.82,WNW,284,9.0,-999.0,91,-99.99,,,0.02,weatherlink.com 1.10,2013-03-20 02:58:00,
2013-03-19 23:13:00,25.0,23.0,29.82,WNW,293,5.0,-999.0,91,-99.99,,,0.02,weatherlink.com 1.10,2013-03-20 03:13:00,
2013-03-19 23:28:00,24.6,22.0,29.82,WNW,287,1.0,-999.0,90,-99.99,,,0.02,weatherlink.com 1.10,2013-03-20 03:28:00,
2013-03-19 23:43:00,24.0,22.0,29.82,West,262,2.0,-999.0,90,-99.99,,,0.02,weatherlink.com 1.10,2013-03-20 03:43:00,
2013-03-19 23:58:00,23.5,21.0,29.82,West,259,6.0,-999.0,91,-99.99,,,0.02,weatherlink.com 1.10,2013-03-20 03:58:00,